Christchurch, New Zealand

8:24 AM NZDT on November 25, 2017 (GMT +1300)
Christchurch International

Weather History for NZCH - October, 2012

Change the Weather History Date:

Thursday, October 18, 2012

  Actual Average Record
Temperature  
Mean Temperature 54 °F -  
Max Temperature 60 °F 61 °F 75 °F (2013)
Min Temperature 48 °F 42 °F 32 °F (2006)
Degree Days  
Heating Degree Days 11    
Growing Degree Days 4 (Base 50)    
Moisture  
Dew Point 40 °F    
Average Humidity 57    
Maximum Humidity 87    
Minimum Humidity 36    
Precipitation  
Precipitation 0.00 in - - ()
Sea Level Pressure  
Sea Level Pressure 29.17 in    
Wind  
Wind Speed 12 mph ()    
Max Wind Speed 23 mph    
Max Gust Speed 38 mph    
Visibility 6.2 miles    
Events Rain    
Averages and records for this station are not official NWS values.
T = Trace of Precipitation, MM = Missing Value Source: Averaged Metar Reports

Daily Weather History Graph

Daily Weather History Graph

Search for Another Location

Airport or City:

Trip Planner

Search our weather history database for the weather conditions in past years. The results will help you decide how hot, cold, wet, or windy it might be!

Date:

Astronomy

Oct. 18, 2012 Rise Set
Actual Time 6:33 AM NZDT 7:57 PM NZDT
Civil Twilight 6:03 AM NZDT 8:27 PM NZDT
Nautical Twilight 5:27 AM NZDT 9:03 PM NZDT
Astronomical Twilight 4:49 AM NZDT 9:41 PM NZDT
Moon 8:03 AM NZDT (10/18) 11:18 PM NZDT (10/18)
Length of Visible Light 14h 23m
Length of Day
13h 23m
Waxing Crescent, 9% of the Moon is Illuminated
Oct 18
Waxing Crescent
Oct 22
First Quarter
Oct 30
Full
Nov 7
Last Quarter
Nov 14
New

Hourly Weather History & Observations

Time (NZDT) Temp. Dew Point Humidity Pressure Visibility Wind Dir Wind Speed Gust Speed Precip Events Conditions
12:00 AM 57.2 °F 48.2 °F 72% 29.21 in - East 9.2 mph - N/A   Clear
1:00 AM 53.6 °F 44.6 °F 72% 29.18 in - West 3.5 mph - N/A   Clear
2:00 AM 59.0 °F 44.6 °F 59% 29.15 in - NW 17.3 mph - N/A   Clear
3:00 AM 59.0 °F 35.6 °F 42% 29.12 in - WNW 23.0 mph 38.0 mph N/A   Clear
4:00 AM 57.2 °F 33.8 °F 41% 29.12 in - NW 19.6 mph 31.1 mph N/A   Clear
5:00 AM 55.4 °F 35.6 °F 47% 29.09 in - NW 23.0 mph 35.7 mph N/A   Clear
6:00 AM 53.6 °F 37.4 °F 54% 29.12 in - WNW 13.8 mph - N/A   Clear
7:00 AM 53.6 °F 35.6 °F 51% 29.12 in - WNW 12.7 mph - N/A   Clear
8:00 AM 53.6 °F 33.8 °F 47% 29.12 in - WNW 16.1 mph - N/A   Clear
9:00 AM 57.2 °F 35.6 °F 44% 29.09 in - WNW 17.3 mph - N/A   Clear
10:00 AM 59.0 °F 32.0 °F 36% 29.09 in - WNW 16.1 mph - N/A   Clear
11:00 AM 57.2 °F 33.8 °F 41% 29.12 in - WNW 17.3 mph - N/A   Clear
12:00 PM 59.0 °F 35.6 °F 42% 29.09 in 6.2 mi WNW 20.7 mph - N/A   Overcast
1:00 PM 57.2 °F 37.4 °F 48% 29.09 in - West 2.3 mph - N/A   Clear
2:00 PM 57.2 °F 39.2 °F 51% 29.12 in 6.2 mi South 6.9 mph - N/A   Mostly Cloudy
3:00 PM 57.2 °F 41.0 °F 55% 29.12 in 6.2 mi SW 10.4 mph - N/A   Mostly Cloudy
4:00 PM 59.0 °F 41.0 °F 51% 29.15 in 6.2 mi West 10.4 mph - N/A   Partly Cloudy
5:00 PM 60.8 °F 39.2 °F 45% 29.15 in 6.2 mi WSW 11.5 mph - N/A   Partly Cloudy
6:00 PM 53.6 °F 46.4 °F 77% 29.21 in 6.2 mi West 8.1 mph - N/A   Mostly Cloudy
7:00 PM 53.6 °F 42.8 °F 67% 29.24 in 6.2 mi SSW 15.0 mph - N/A   Mostly Cloudy
8:00 PM 50.0 °F 44.6 °F 82% 29.30 in 6.2 mi SSW 15.0 mph - N/A   Mostly Cloudy
9:00 PM 50.0 °F 44.6 °F 82% 29.36 in 6.2 mi SW 8.1 mph - N/A Rain Light Rain Showers
10:00 PM 48.2 °F 44.6 °F 87% 29.36 in 6.2 mi West 5.8 mph - N/A   Mostly Cloudy
11:00 PM 50.0 °F 44.6 °F 82% 29.39 in 6.2 mi WSW 8.1 mph - N/A   Mostly Cloudy